Location: Barabitstanya
(48.1333°N, 20.7833°E)
Time: 08:20:06
(UTC+00:00)

Daily predictions for brighter satellites

Satellite Brightness Start Highest point End
(mag) Time Altitude Azimuth Time Altitude Azimuth Time Altitude Azimuth
Cosmos 44 3.3 15:43:50 10° SSW 15:48:16 61° ESE 15:53:01 10° NE
Cosmos 1340 3.5 15:47:59 10° N 15:51:20 29° ENE 15:54:40 10° SE
Okean O Rocket 1.5 15:47:06 10° SSE 15:51:26 75° ENE 15:55:48 10° N
Meteor 2-21 4.5 15:45:33 10° N 15:51:45 82° E 15:57:51 10° SSE
Cosmos 2228 3.0 15:47:52 10° S 15:52:02 59° E 15:56:16 10° NNE
Cosmos 1703 4.4 15:48:41 10° NNW 15:52:31 51° W 15:56:21 10° S
Cosmos 1726 Rocket 3.9 15:48:30 10° SSE 15:52:39 45° E 15:56:52 10° NNE
Timation 2 Rocket 4.2 15:47:10 10° NNW 15:53:48 83° ENE 16:00:39 10° SSE
Cosmos 2369 Rocket 4.2 15:49:21 10° W 15:53:53 24° NW 15:58:26 10° N
Aureole 3 4.0 15:52:03 10° SE 15:54:25 21° E 15:56:44 10° NE
CORIOLIS 4.1 15:49:22 10° SSE 15:54:40 72° ENE 16:00:02 10° N
CZ-4 R/B 2.9 15:52:20 10° E 15:54:42 16° ENE 15:57:03 10° NNE
Cosmos 2297 Rocket 2.3 15:49:48 10° NNW 15:55:25 56° ENE 16:00:58 10° SE
Cosmos 1758 Rocket 3.9 15:52:08 10° NNW 15:56:32 73° W 16:00:52 10° S
SL-4 R/B 2.2 15:53:46 10° WNW 15:57:10 47° N 16:00:45 10° E
Cosmos 1346 Rocket 4.1 15:55:16 10° NNE 15:58:15 20° ENE 16:01:14 10° ESE
Cosmos 2058 4.2 15:55:25 10° NNE 15:58:23 19° ENE 16:01:21 10° ESE
CZ-2C R/B 4.2 15:58:55 10° ESE 16:03:32 26° ENE 16:08:02 10° N
Cosmos 1606 Rocket 3.5 16:04:40 10° S 16:09:03 84° E 16:13:29 10° N
Cosmos 1315 Rocket 4.3 16:08:02 10° SE 16:10:31 16° E 16:13:02 10° NE
Meteor 2-10 Rocket 4.3 16:10:23 10° SSE 16:14:47 28° E 16:19:05 10° NNE
YAOGAN 6 4.0 16:11:52 10° S 16:15:21 43° W 16:18:56 10° NNW
FengYun 1-2 T 4.3 16:10:46 10° SSE 16:16:25 83° ENE 16:22:04 10° NNW
USA 305 3.0 16:13:49 10° WNW 16:18:06 64° NNE 16:22:01 12° ESE
SKYMED 2 4.1 16:14:57 10° NNE 16:19:00 37° E 16:23:00 10° SSE
Cosmos 292 Rocket 3.9 16:14:52 10° SSW 16:19:41 84° WNW 16:24:33 10° NNE
Meteor 2-16 Rocket 4.4 16:13:55 10° N 16:20:03 87° E 16:26:09 10° S
Cosmos 1455 3.4 16:20:16 10° SE 16:23:08 21° E 16:26:01 10° NE
SeaSat 1 3.9 16:20:50 13° ENE 16:23:20 19° NE 16:26:43 10° N
H-2A R/B 3.1 16:19:58 10° ESE 16:24:25 26° ENE 16:28:53 10° N
USA 306 2.9 16:20:20 10° WNW 16:24:38 68° NNE 16:28:15 14° ESE
Aureole 3 Rocket 3.4 16:20:39 10° S 16:24:46 60° E 16:30:34 10° NNE
BREEZE-M R/B 3.9 16:16:53 10° W 16:26:50 78° N 16:28:59 18° E
USA 215 4.0 16:22:49 12° ENE 16:28:24 41° N 16:34:26 10° WNW
Okean-O 3.1 16:24:27 10° SE 16:28:35 40° ENE 16:32:44 10° N
Cosmos 2219 3.4 16:23:09 10° NNW 16:28:57 82° WSW 16:34:42 10° SSE
SMAP 4.2 16:24:54 10° S 16:29:23 48° W 16:33:55 10° NNW
Cosmos 1745 Rocket 4.2 16:24:21 10° N 16:30:27 48° ENE 16:36:33 10° SSE
ATLAS 5 CENTAUR R/B 4.0 16:28:51 10° NW 16:31:39 16° N 16:34:42 10° NNE
FALCON 9 DEB 3.1 16:30:19 10° WSW 16:33:32 67° NNW 16:35:34 21° ENE
ATLAS 2AS CENTAUR R/B 3.6 16:27:02 10° NW 16:34:01 36° NNE 16:38:50 17° E
FALCON 9 DEB 3.2 16:32:22 10° WSW 16:35:33 62° NNW 16:37:27 22° NE
Cosmos 2082 3.8 16:30:33 10° NNW 16:36:12 55° ENE 16:41:50 10° SE
Lacrosse 5 3.1 16:33:20 10° WNW 16:37:49 30° N 16:41:00 16° NE
ARGOS 4.1 16:35:50 14° ESE 16:39:25 27° ENE 16:43:52 10° N
Cosmos 44 Rocket 4.4 16:35:56 10° SSE 16:39:44 24° ESE 16:41:11 21° E
GEOS 3 Rocket 4.3 16:36:12 17° E 16:39:46 37° NE 16:44:42 10° NNW
Cosmos 1656 3.6 16:36:08 10° SSW 16:41:41 74° ESE 16:47:20 10° NNE
Cosmos 968 Rocket 3.4 16:38:20 10° NNW 16:43:36 85° ENE 16:48:46 10° SSE
Cosmos 1408 2.8 16:40:36 10° N 16:44:09 47° ENE 16:47:41 10° SSE
Cosmos 2058 Rocket 3.2 16:42:24 10° SSW 16:46:54 80° W 16:51:27 10° N
ERBS 4.1 16:47:27 10° NW 16:49:57 19° N 16:50:49 17° NNE
FALCON 9 DEB 3.4 16:47:02 10° W 16:50:14 54° NNW 16:51:36 29° NE
Cosmos 2369 4.0 16:47:11 10° S 16:52:33 43° ESE 16:57:12 14° NE
USA 281 4.5 16:46:28 10° S 16:52:40 44° WSW 16:58:54 10° NW
Cosmos 1689 Rocket 1.8 16:50:04 10° NNE 16:52:58 80° ESE 16:55:50 10° S
IRS-1C Rocket 4.3 16:50:39 10° S 16:55:55 77° WSW 17:01:14 10° NNW
Cosmos 1076 Rocket 3.6 16:51:53 10° N 16:56:03 51° ENE 17:00:11 10° SSE
FALCON 9 DEB 3.3 16:55:35 10° WNW 16:58:58 54° NNE 16:59:43 43° ENE
FALCON 9 DEB 3.6 16:56:43 10° W 16:59:51 47° NNW 17:00:47 35° NNE
SL-08 ROCKET BODY 4.4 16:53:47 10° N 16:59:56 86° E 17:06:08 10° S
Cosmos 1709 Rocket 4.3 16:53:49 10° N 16:59:57 46° ENE 17:06:04 10° SSE
Cosmos 2227 Rocket 2.7 16:54:21 10° NNW 16:59:57 62° WSW 17:05:31 10° SSE
Cosmos 1892 2.9 16:56:16 10° NNW 17:00:09 73° W 17:04:01 10° S
CSL-04 Rocket 3.9 16:55:11 10° SE 17:00:30 49° ENE 17:05:47 10° N
CZ-4C R/B 3.7 16:55:17 10° NW 17:01:09 31° NNE 17:04:27 23° ENE
Cosmos 1939 Rocket 3.4 16:57:17 10° S 17:01:12 59° W 17:05:04 10° NNW
Cosmos 2263 Rocket 3.0 16:57:06 10° NNW 17:02:06 30° NE 17:03:25 27° ENE
COSMO-SKYMED 1 2.7 17:02:47 10° N 17:07:09 74° WNW 17:11:28 10° SSW
USA 307 3.0 17:04:05 10° WNW 17:08:23 73° SSW 17:10:16 32° SE
CZ-4B R/B 3.8 17:10:07 10° NNW 17:12:41 22° WNW 17:15:12 10° WSW
Cosmos 1400 Rocket 4.3 17:09:05 10° SW 17:12:57 39° WNW 17:16:48 10° N
USA 308 3.1 17:09:04 10° WNW 17:13:21 68° SSW 17:15:03 34° SE
Cosmos 1697 Rocket 2.6 17:09:14 10° SSW 17:14:48 73° ESE 17:19:39 14° NNE
Cosmos 883 Rocket 4.5 17:09:23 10° SSE 17:15:20 54° E 17:21:17 10° NNE
Cosmos 1825 2.0 17:12:05 10° N 17:15:52 73° E 17:17:29 32° SSE
Helios 1A Rocket 3.5 17:14:25 10° S 17:18:28 58° WSW 17:22:32 10° NNW
YAOGAN 1 2.6 17:16:28 10° SSE 17:20:48 81° WSW 17:25:09 10° NNW
S3M 3.9 17:16:01 10° S 17:22:09 88° W 17:28:22 10° N
Cosmos 1503 Rocket 4.1 17:18:13 10° NNW 17:23:27 75° WSW 17:28:42 10° SSE
BREEZE-M TANK 3.1 17:17:42 10° W 17:24:02 53° SSW 17:24:59 40° SSE
Cosmos 2315 Rocket 4.0 17:19:56 10° SSE 17:25:55 53° E 17:31:55 10° NNE
Cosmos 1812 Rocket 3.4 17:23:14 10° S 17:27:38 82° E 17:32:02 10° NNE
Meteor 2-1 Rocket 4.2 17:22:41 10° SSW 17:28:11 84° W 17:33:47 10° N
CZ-4 R/B 2.0 17:25:34 10° S 17:29:21 52° W 17:33:08 10° NNW
DMSP B5D1-3 4.4 17:24:48 10° NNE 17:29:58 70° ESE 17:35:06 10° S
Cosmos 1346 Rocket 4.2 17:31:03 10° NNW 17:34:47 39° W 17:38:30 10° SSW
Cosmos 2058 4.1 17:31:37 10° NNW 17:35:31 42° W 17:39:23 10° SSW
Cosmos 1354 Rocket 4.3 17:31:02 10° NNW 17:36:15 67° WSW 17:41:00 13° S
SL-4 R/B 1.9 17:33:18 10° WNW 17:36:32 70° WNW 17:36:32 70° WNW
Cosmos 1980 Rocket 2.1 17:32:54 10° S 17:38:26 61° ESE 17:39:22 53° ENE
Cosmos 2151 3.5 17:34:28 10° N 17:37:31 45° NNE 17:37:31 45° NNE
Cosmos 2297 Rocket 4.3 17:34:27 10° NW 17:39:05 26° WSW 17:43:42 10° SSW
SJ-11-01 4.2 17:35:51 19° S 17:39:10 82° WSW 17:43:53 10° NNW
Cosmos 1992 Rocket 4.3 17:35:08 10° SSW 17:40:18 65° WNW 17:45:22 11° NNE
Timation 1 Rocket 4.4 17:36:44 10° NNW 17:42:46 77° WSW 17:46:16 26° SSE
CZ-2C R/B 3.8 17:37:20 10° S 17:43:02 61° W 17:48:35 10° NNW
CSL-04 Debris 4.3 17:38:01 10° S 17:43:27 76° WSW 17:48:58 10° NNW
Cosmos 1315 Rocket 3.8 17:42:51 10° SSW 17:46:41 46° WNW 17:50:35 10° N
Ariane Rocket 3.9 17:53:41 35° NNE 17:53:41 35° NNE 17:56:54 10° N
Geosat 3.8 17:52:54 79° E 17:53:05 82° ESE 17:58:07 10° SSW
Cosmos 2227 4.1 17:51:14 10° NNW 17:56:38 67° NE 17:56:38 67° NE
BREEZE-M R/B 4.0 17:52:48 10° WNW 17:57:19 76° SSW 17:59:00 54° SE
USA 305 4.2 17:54:04 10° WNW 17:57:58 34° SW 17:58:11 34° SW
Cosmos 1455 3.9 17:55:07 10° SW 17:58:32 32° WNW 18:02:01 10° N
SeaSat 1 2.4 18:00:38 75° N 18:00:38 75° N 18:05:12 10° NNW
Cosmos 2360 4.4 17:56:05 10° SW 18:01:47 68° WNW 18:04:36 31° NNE
H-2A R/B 2.8 17:58:12 10° S 18:03:30 55° W 18:08:53 10° NNW
NOSS 3-4 (A) 3.7 17:56:46 10° NW 18:03:45 89° ENE 18:05:39 55° SE
NOSS 3-4 (C) 3.7 17:56:52 10° NW 18:03:51 89° NE 18:05:43 55° SE
USA 306 4.4 18:00:38 10° WNW 18:04:25 31° SW 18:04:25 31° SW
DEBRIS 4.0 17:49:32 10° WSW 18:06:08 85° SSE 18:06:53 70° E
MOS 1 Rocket 3.9 18:03:09 10° N 18:07:46 56° WNW 18:12:39 10° SSW
USA 215 3.4 18:10:10 55° NE 18:10:47 57° NNE 18:17:10 10° NW
Cosmos 2278 3.8 18:06:19 10° SSW 18:12:00 76° WNW 18:12:45 65° N
NOSS 3-3 (A) 4.4 18:07:46 10° WSW 18:13:39 58° NW 18:16:10 36° NNE
NOSS 3-3 (C) 4.4 18:07:53 10° WSW 18:13:45 59° NW 18:16:14 37° NNE
GEOS 3 Rocket 4.0 18:17:20 60° SW 18:17:36 61° SW 18:22:57 10° NW
ATLAS 5 CENTAUR R/B 4.1 18:15:01 10° NNW 18:17:34 17° N 18:17:34 17° N
ARGOS 3.8 18:17:21 35° SSW 18:19:21 54° W 18:24:42 10° NNW
Meteor 2-3 Rocket 3.8 18:14:27 10° NNW 18:19:36 72° NNW 18:19:36 72° NNW
Cosmos 44 Rocket 4.1 18:16:10 10° SW 18:19:57 48° W 18:19:57 48° W
Lacrosse 5 3.0 18:16:44 10° NW 18:20:11 38° NNW 18:20:11 38° NNW
ATLAS 2AS CENTAUR R/B 2.6 18:18:17 10° NW 18:25:52 86° SW 18:26:17 80° SSE
Cosmos 1844 Rocket 4.5 18:29:21 10° NNW 18:31:40 22° N 18:31:40 22° N
SJ 16-02 4.1 18:33:23 10° NNW 18:33:43 12° NNW 18:33:43 12° NNW
Cosmos 2263 Rocket 3.1 18:40:48 10° NW 18:45:08 47° WNW 18:45:08 47° WNW
CZ-4C R/B 3.0 18:43:39 10° NW 18:49:38 66° NNW 18:49:38 66° NNW
Cosmos 1980 Rocket 4.2 19:18:03 10° WSW 19:21:13 24° WNW 19:21:13 24° WNW
